TimeCDT,TemperatureF,Dew PointF,Humidity,Sea Level PressureIn,VisibilityMPH,Wind Direction,Wind SpeedMPH,Gust SpeedMPH,PrecipitationIn,Events,Conditions,WindDirDegrees,DateUTC
12:52 AM,61.0,55.9,83,30.06,10.0,SE,4.6,-,N/A,,Clear,130,2013-10-15 05:52:00
1:52 AM,61.0,57.0,87,30.05,10.0,ESE,3.5,-,N/A,,Clear,110,2013-10-15 06:52:00
2:52 AM,62.1,57.9,86,30.02,10.0,SE,4.6,-,N/A,,Clear,140,2013-10-15 07:52:00
3:52 AM,63.0,57.9,84,30.02,9.0,SE,4.6,-,N/A,,Mostly Cloudy,130,2013-10-15 08:52:00
4:52 AM,63.0,59.0,87,30.01,8.0,SE,4.6,-,N/A,,Overcast,140,2013-10-15 09:52:00
5:52 AM,63.0,59.0,87,29.99,7.0,SE,6.9,-,N/A,,Overcast,140,2013-10-15 10:52:00
6:52 AM,63.0,60.1,90,29.99,7.0,SE,5.8,-,N/A,,Overcast,130,2013-10-15 11:52:00
7:52 AM,64.9,60.1,84,29.98,7.0,South,9.2,-,N/A,,Mostly Cloudy,170,2013-10-15 12:52:00
8:52 AM,66.0,61.0,84,29.98,8.0,South,8.1,-,N/A,,Overcast,170,2013-10-15 13:52:00
9:52 AM,66.9,62.1,84,29.99,9.0,South,5.8,-,N/A,,Overcast,180,2013-10-15 14:52:00
10:52 AM,68.0,63.0,84,29.99,7.0,South,3.5,-,0.00,Rain,Light Rain,190,2013-10-15 15:52:00
11:52 AM,68.0,63.0,84,30.00,6.0,SSW,11.5,-,0.02,Rain,Light Rain,210,2013-10-15 16:52:00
12:52 PM,66.9,64.0,90,29.97,7.0,South,11.5,-,0.04,Rain,Rain,180,2013-10-15 17:52:00
1:52 PM,66.0,64.0,93,29.93,7.0,SSE,10.4,-,0.03,Rain,Light Rain,160,2013-10-15 18:52:00
2:52 PM,68.0,63.0,84,29.94,10.0,SSW,16.1,-,0.00,,Mostly Cloudy,200,2013-10-15 19:52:00
3:26 PM,68.0,64.4,88,29.94,10.0,South,10.4,-,N/A,,Overcast,190,2013-10-15 20:26:00
3:52 PM,68.0,63.0,84,29.93,10.0,South,12.7,-,N/A,,Overcast,190,2013-10-15 20:52:00
4:52 PM,66.9,63.0,87,29.93,10.0,South,11.5,-,N/A,,Overcast,190,2013-10-15 21:52:00
5:45 PM,66.2,64.4,94,29.93,10.0,South,8.1,-,N/A,,Overcast,180,2013-10-15 22:45:00
5:52 PM,66.9,64.0,90,29.92,10.0,South,10.4,-,N/A,,Overcast,180,2013-10-15 22:52:00
5:59 PM,66.2,62.6,88,29.94,10.0,South,10.4,-,N/A,,Overcast,190,2013-10-15 22:59:00
6:52 PM,66.0,63.0,90,29.94,10.0,South,9.2,-,N/A,,Overcast,190,2013-10-15 23:52:00
7:52 PM,66.0,63.0,90,29.95,10.0,South,6.9,-,N/A,,Overcast,190,2013-10-16 00:52:00
8:07 PM,66.2,62.6,88,29.95,7.0,South,8.1,-,N/A,,Overcast,190,2013-10-16 01:07:00
8:37 PM,64.4,62.6,94,29.95,5.0,South,9.2,-,0.00,,Overcast,190,2013-10-16 01:37:00
8:44 PM,64.4,62.6,94,29.96,8.0,SSW,9.2,-,0.00,,Overcast,200,2013-10-16 01:44:00
8:52 PM,64.9,63.0,93,29.96,9.0,SSW,8.1,-,0.00,,Overcast,210,2013-10-16 01:52:00
9:52 PM,64.9,63.0,93,29.96,8.0,SSW,4.6,-,N/A,,Overcast,210,2013-10-16 02:52:00
10:23 PM,64.4,62.6,94,29.96,10.0,SSW,4.6,-,N/A,,Overcast,210,2013-10-16 03:23:00
10:45 PM,64.4,64.4,100,29.96,4.0,West,4.6,-,0.02,Rain,Light Rain,280,2013-10-16 03:45:00
10:52 PM,64.9,64.0,97,29.96,2.0,West,6.9,-,0.03,Rain,Light Rain,270,2013-10-16 03:52:00
10:59 PM,64.4,62.6,94,29.96,3.0,WNW,6.9,17.3,0.00,Rain,Light Rain,290,2013-10-16 03:59:00
11:08 PM,64.4,62.6,94,29.96,4.0,WNW,5.8,-,0.00,,Overcast,300,2013-10-16 04:08:00
11:26 PM,62.6,60.8,94,29.97,6.0,WNW,9.2,-,0.00,,Overcast,300,2013-10-16 04:26:00
11:52 PM,62.1,60.1,93,29.96,10.0,WNW,9.2,-,0.00,,Overcast,300,2013-10-16 04:52:00